FW3814 Weather Reports


Display with metric or nautical units.
time (UTC)temp
F
wind
direction
speed
MPH
gust
MPH
rain 1hr
in
rain 24hr
in
rain mn
in
humidity
%
barometer
mb
20260901064005 74 56 2.0 5.0 0.00 0.00 0.00 45 1017.4
20260901063526 74 22 1.0 4.0 0.00 0.00 0.00 44 1017.4
20260901063005 74 39 2.0 8.0 0.00 0.00 0.00 43 1017.6
20260901062526 73 47 4.0 8.0 0.00 0.00 0.00 42 1017.5
20260901062026 73 49 5.0 8.0 0.00 0.00 0.00 42 1017.3
20260901061505 73 39 5.0 7.0 0.00 0.00 0.00 42 1017.2
20260901061005 73 14 5.0 7.0 0.00 0.00 0.00 42 1017.0
20260901060504 73 5 5.0 8.0 0.00 0.00 0.00 41 1016.9
20260901060005 73 16 6.0 8.0 0.00 0.00 0.00 41 1017.0
20260901055505 73 21 6.0 8.0 0.00 0.00 0.00 41 1016.8
20260901055005 72 34 5.0 8.0 0.00 0.00 0.00 41 1016.8
20260901054505 72 55 6.0 8.0 0.00 0.00 0.00 44 1016.7
20260901054005 72 53 7.0 9.0 0.00 0.00 0.00 44 1016.8
20260901053505 72 35 7.0 9.0 0.00 0.00 0.00 44 1016.6
20260901053005 72 30 5.0 8.0 0.00 0.00 0.00 44 1016.5
20260901052505 72 52 5.0 8.0 0.00 0.00 0.00 44 1016.5
20260901052005 72 42 7.0 8.0 0.00 0.00 0.00 44 1016.6
20260901051505 71 26 6.0 8.0 0.00 0.00 0.00 44 1016.6
20260901051026 71 35 6.0 8.0 0.00 0.00 0.00 45 1016.5
20260901050526 71 49 7.0 8.0 0.00 0.00 0.00 45 1016.4
20260901050005 71 42 6.0 8.0 0.00 0.00 0.00 45 1016.3
20260901045526 71 28 6.0 8.0 0.00 0.00 0.00 45 1016.2
20260901045005 71 24 7.0 11.0 0.00 0.00 0.00 45 1016.3
20260901044506 71 25 7.0 11.0 0.00 0.00 0.00 45 1016.2
20260901044005 70 47 6.0 8.0 0.00 0.00 0.00 45 1016.1
20260901043526 70 60 5.0 6.0 0.00 0.00 0.00 45 1015.9
20260901043026 70 63 4.0 6.0 0.00 0.00 0.00 45 1015.9
20260901042505 70 52 3.0 5.0 0.00 0.00 0.00 45 1016.0
20260901042004 71 23 5.0 8.0 0.00 0.00 0.00 45 1015.9
20260901041526 71 19 6.0 8.0 0.00 0.00 0.00 45 1015.8
20260901041005 71 51 6.0 6.0 0.00 0.00 0.00 45 1015.7
20260901040505 71 61 6.0 10.0 0.00 0.00 0.00 44 1015.7
20260901040004 71 47 7.0 11.0 0.00 0.00 0.00 44 1015.6
20260901035505 71 45 9.0 14.0 0.00 0.00 0.00 44 1015.3
20260901035005 71 45 10.0 14.0 0.00 0.00 0.00 45 1015.2
20260901034505 71 37 9.0 11.0 0.00 0.00 0.00 45 1015.1
20260901034005 71 35 9.0 11.0 0.00 0.00 0.00 45 1015.1
20260901033504 71 33 8.0 11.0 0.00 0.00 0.00 45 1015.1
20260901033005 71 24 8.0 13.0 0.00 0.00 0.00 45 1015.0
20260901032526 72 30 8.0 13.0 0.00 0.00 0.00 45 1014.9
20260901032004 72 24 10.0 14.0 0.00 0.00 0.00 45 1014.9
20260901031505 72 10 13.0 15.0 0.00 0.00 0.00 45 1014.9
20260901031004 72 12 11.0 15.0 0.00 0.00 0.00 45 1015.0
20260901030504 72 17 9.0 13.0 0.00 0.00 0.00 45 1015.0
20260901030005 72 20 9.0 15.0 0.00 0.00 0.00 45 1015.0
20260901025505 72 23 9.0 15.0 0.00 0.00 0.00 45 1014.8
20260901025004 72 20 10.0 15.0 0.00 0.00 0.00 45 1015.0
20260901024504 72 15 10.0 11.0 0.00 0.00 0.00 42 1015.0
20260901024026 72 28 8.0 11.0 0.00 0.00 0.00 42 1015.0
20260901023505 73 42 8.0 11.0 0.00 0.00 0.00 42 1015.0
20260901023005 73 35 8.0 11.0 0.00 0.00 0.00 42 1015.1
20260901022505 72 29 7.0 9.0 0.00 0.00 0.00 43 1015.1
20260901022004 73 20 6.0 8.0 0.00 0.00 0.00 42 1015.0
20260901021505 73 13 7.0 10.0 0.00 0.00 0.00 42 1015.1
20260901021004 73 18 8.0 10.0 0.00 0.00 0.00 42 1014.9
20260901020526 73 22 8.0 10.0 0.00 0.00 0.00 42 1015.1
20260901020026 73 16 7.0 10.0 0.00 0.00 0.00 42 1014.9
20260901015505 74 9 6.0 8.0 0.00 0.00 0.00 42 1015.0
20260901015005 74 17 6.0 10.0 0.00 0.00 0.00 42 1015.0
20260901014505 74 17 5.0 10.0 0.00 0.00 0.00 42 1015.0
20260901014004 74 22 5.0 8.0 0.00 0.00 0.00 43 1015.0
20260901013505 74 19 6.0 8.0 0.00 0.00 0.00 43 1014.9
20260901013005 74 2 5.0 7.0 0.00 0.00 0.00 43 1014.8
20260901012526 74 5 5.0 7.0 0.00 0.00 0.00 44 1015.0
20260901012005 73 18 6.0 8.0 0.00 0.00 0.00 45 1014.9
20260901011504 73 15 6.0 9.0 0.00 0.00 0.00 45 1015.0
20260901011005 73 11 6.0 9.0 0.00 0.00 0.00 46 1015.0
20260901010505 73 11 6.0 8.0 0.00 0.00 0.00 47 1014.9
20260901010005 73 355 5.0 8.0 0.00 0.00 0.00 49 1014.9
20260901005526 72 355 4.0 8.0 0.00 0.00 0.00 50 1014.8
20260901005005 72 5 3.0 7.0 0.00 0.00 0.00 51 1014.9
20260901004526 72 10 3.0 8.0 0.00 0.00 0.00 51 1014.8
20260901004004 72 6 5.0 8.0 0.00 0.00 0.00 52 1014.8
20260901003505 72 4 4.0 8.0 0.00 0.00 0.00 52 1014.8
20260901003005 73 17 3.0 4.0 0.00 0.00 0.00 53 1014.8
20260901002526 73 11 4.0 7.0 0.00 0.00 0.00 53 1015.0
20260901002005 73 15 5.0 7.0 0.00 0.00 0.00 54 1014.9
20260901001526 73 28 4.0 7.0 0.00 0.00 0.00 55 1014.9
20260901001004 73 24 4.0 4.0 0.00 0.00 0.00 56 1014.9
20260901000526 73 21 5.0 7.0 0.00 0.00 0.00 58 1014.9
20260901000005 73 20 4.0 7.0 0.00 0.00 0.00 58 1014.9
20260831235526 73 14 3.0 6.0 0.00 0.00 0.00 59 1015.0
20260831235005 73 7 2.0 4.0 0.00 0.00 0.00 60 1014.9
20260831234504 73 13 0.0 1.0 0.00 0.00 0.00 60 1014.8
20260831234005 73 353 1.0 2.0 0.00 0.00 0.00 60 1015.0
20260831233505 73 8 1.0 4.0 0.00 0.00 0.00 60 1014.9
20260831233005 73 21 2.0 4.0 0.00 0.00 0.00 61 1014.7
20260831232526 73 20 2.0 3.0 0.00 0.00 0.00 61 1014.9
20260831232005 73 15 2.0 4.0 0.00 0.00 0.00 61 1014.8
20260831231505 73 15 3.0 4.0 0.00 0.00 0.00 62 1014.8
20260831231004 73 18 2.0 4.0 0.00 0.00 0.00 63 1014.5
20260831230504 73 17 1.0 4.0 0.00 0.00 0.00 63 1014.7
20260831230004 73 12 1.0 2.0 0.00 0.00 0.00 64 1014.8
20260831225525 73 7 1.0 2.0 0.00 0.00 0.00 64 1014.6
20260831225004 73 7 1.0 2.0 0.00 0.00 0.00 64 1014.6
20260831224504 73 13 1.0 2.0 0.00 0.00 0.00 64 1014.6
20260831224025 73 5 0.0 2.0 0.00 0.00 0.00 64 1014.5
20260831223504 74 6 1.0 2.0 0.00 0.00 0.00 63 1014.5
20260831223004 74 10 1.0 2.0 0.00 0.00 0.00 64 1014.6
20260831222504 74 12 1.0 2.0 0.00 0.00 0.00 64 1014.6
20260831222004 74 13 1.0 2.0 0.00 0.00 0.00 64 1014.6
20260831221504 74 25 0.0 1.0 0.00 0.00 0.00 65 1014.6
20260831221004 74 0 0.0 0.0 0.00 0.00 0.00 65 1014.5
20260831220525 74 9 0.0 1.0 0.00 0.00 0.00 65 1014.6
20260831220004 74 9 0.0 1.0 0.00 0.00 0.00 65 1014.5
20260831215504 74 0 0.0 0.0 0.00 0.00 0.00 64 1014.5
20260831215004 74 360 0.0 1.0 0.00 0.00 0.00 64 1014.4
20260831214525 74 13 0.0 1.0 0.00 0.00 0.00 64 1014.4
20260831214004 74 22 0.0 1.0 0.00 0.00 0.00 64 1014.5
20260831213504 74 0 0.0 0.0 0.00 0.00 0.00 65 1014.4
20260831213004 74 0 0.0 0.0 0.00 0.00 0.00 65 1014.4
20260831212504 75 0 0.0 0.0 0.00 0.00 0.00 65 1014.3
20260831212004 75 0 0.0 0.0 0.00 0.00 0.00 65 1014.4
20260831211504 75 0 0.0 0.0 0.00 0.00 0.00 65 1014.3
20260831211004 75 0 0.0 0.0 0.00 0.00 0.00 64 1014.3
20260831210504 75 0 0.0 0.0 0.00 0.00 0.00 64 1014.4
20260831210004 75 0 0.0 0.0 0.00 0.00 0.00 63 1014.2
20260831205504 75 0 0.0 0.0 0.00 0.00 0.00 63 1014.3
20260831205004 75 0 0.0 0.0 0.00 0.00 0.00 62 1014.2
20260831204504 76 0 0.0 0.0 0.00 0.00 0.00 62 1014.3
20260831204025 76 0 0.0 0.0 0.00 0.00 0.00 62 1014.3
20260831203504 76 0 0.0 0.0 0.00 0.00 0.00 61 1014.3
20260831203004 76 0 0.0 0.0 0.00 0.00 0.00 61 1014.2
20260831202504 76 0 0.0 0.0 0.00 0.00 0.00 60 1014.0
20260831202025 76 0 0.0 0.0 0.00 0.00 0.00 60 1014.0
20260831201504 76 22 0.0 1.0 0.00 0.00 0.00 60 1014.1
20260831201025 77 22 0.0 1.0 0.00 0.00 0.00 60 1013.9
20260831200504 77 19 1.0 3.0 0.00 0.00 0.00 60 1013.9
20260831200025 77 19 1.0 3.0 0.00 0.00 0.00 60 1013.8
20260831195525 77 22 0.0 3.0 0.00 0.00 0.00 59 1013.8
20260831195004 77 0 0.0 0.0 0.00 0.00 0.00 58 1013.8
20260831194504 78 0 0.0 0.0 0.00 0.00 0.00 58 1013.8
20260831194004 78 0 0.0 0.0 0.00 0.00 0.00 57 1013.7
20260831193504 78 0 0.0 0.0 0.00 0.00 0.00 56 1013.7
20260831193004 78 0 0.0 0.0 0.00 0.00 0.00 56 1013.7
20260831192504 78 0 0.0 0.0 0.00 0.00 0.00 56 1013.6
20260831192004 78 0 0.0 0.0 0.00 0.00 0.00 56 1013.6
20260831191504 78 0 0.0 0.0 0.00 0.00 0.00 55 1013.7
20260831191004 78 0 0.0 0.0 0.00 0.00 0.00 55 1013.9
20260831190525 78 0 0.0 0.0 0.00 0.00 0.00 55 1013.6
20260831190004 78 0 0.0 0.0 0.00 0.00 0.00 55 1013.4
20260831185504 78 0 0.0 0.0 0.00 0.00 0.00 55 1013.5
20260831185004 78 0 0.0 0.0 0.00 0.00 0.00 54 1013.5
20260831184504 78 0 0.0 0.0 0.00 0.00 0.00 54 1013.4
20260831184004 78 0 0.0 0.0 0.00 0.00 0.00 54 1013.3
20260831183504 79 0 0.0 0.0 0.00 0.00 0.00 53 1013.1
20260831183004 79 0 0.0 0.0 0.00 0.00 0.00 53 1013.2
20260831182504 80 0 0.0 0.0 0.00 0.00 0.00 52 1013.2
20260831182004 80 0 0.0 0.0 0.00 0.00 0.00 52 1013.0
20260831181504 80 0 0.0 0.0 0.00 0.00 0.00 52 1013.0
20260831181004 80 0 0.0 0.0 0.00 0.00 0.00 52 1013.0
20260831180504 81 0 0.0 0.0 0.00 0.00 0.00 52 1013.0
20260831180025 81 0 0.0 0.0 0.00 0.00 0.00 52 1012.8
20260831175504 81 0 0.0 0.0 0.00 0.00 0.00 51 1012.9
20260831175004 81 0 0.0 0.0 0.00 0.00 0.00 51 1013.1
20260831174504 82 360 0.0 1.0 0.00 0.00 0.00 46 1012.9
20260831174004 82 360 0.0 1.0 0.00 0.00 0.00 46 1013.1
20260831173504 83 0 0.0 0.0 0.00 0.00 0.00 46 1013.0
20260831173004 83 0 0.0 0.0 0.00 0.00 0.00 45 1012.9
20260831172525 84 0 0.0 0.0 0.00 0.00 0.00 45 1013.1
20260831172004 85 0 0.0 0.0 0.00 0.00 0.00 44 1013.0
20260831171525 86 0 0.0 0.0 0.00 0.00 0.00 44 1013.0
20260831171004 86 0 0.0 0.0 0.00 0.00 0.00 44 1013.0
20260831170504 86 315 0.0 1.0 0.00 0.00 0.00 43 1012.9
20260831170004 86 315 0.0 1.0 0.00 0.00 0.00 43 1012.8
20260831165504 86 315 0.0 1.0 0.00 0.00 0.00 43 1012.8
20260831165004 86 315 0.0 1.0 0.00 0.00 0.00 43 1013.1
20260831164504 86 304 0.0 2.0 0.00 0.00 0.00 42 1013.0
20260831164004 87 287 0.0 2.0 0.00 0.00 0.00 42 1013.1
20260831163504 87 275 0.0 1.0 0.00 0.00 0.00 43 1012.9
20260831163004 87 300 0.0 1.0 0.00 0.00 0.00 43 1013.2
20260831162504 87 247 0.0 2.0 0.00 0.00 0.00 43 1013.0
20260831162025 87 247 1.0 2.0 0.00 0.00 0.00 43 1013.1
20260831161504 87 247 0.0 1.0 0.00 0.00 0.00 43 1013.1
20260831161004 87 247 0.0 1.0 0.00 0.00 0.00 43 1013.1
20260831160504 87 289 0.0 2.0 0.00 0.00 0.00 43 1013.1
20260831160004 87 308 1.0 2.0 0.00 0.00 0.00 43 1013.1
20260831155504 87 319 1.0 4.0 0.00 0.00 0.00 43 1013.0
20260831155004 87 317 1.0 4.0 0.00 0.00 0.00 43 1013.1
20260831154504 87 247 0.0 1.0 0.00 0.00 0.00 43 1013.2
20260831154004 87 307 1.0 4.0 0.00 0.00 0.00 43 1013.3
20260831153504 87 297 3.0 5.0 0.00 0.00 0.00 43 1013.4
20260831153004 87 272 4.0 8.0 0.00 0.00 0.00 42 1013.3
20260831152504 87 274 3.0 8.0 0.00 0.00 0.00 43 1013.2
20260831152003 87 280 2.0 4.0 0.00 0.00 0.00 43 1013.2
20260831151504 87 280 2.0 6.0 0.00 0.00 0.00 43 1013.4
20260831151025 87 315 1.0 6.0 0.00 0.00 0.00 43 1013.5
20260831150504 88 286 1.0 4.0 0.00 0.00 0.00 42 1013.4
20260831150004 88 278 1.0 4.0 0.00 0.00 0.00 42 1013.4
20260831145504 88 299 0.0 2.0 0.00 0.00 0.00 42 1013.4
20260831145004 88 254 1.0 6.0 0.00 0.00 0.00 43 1013.5
20260831144504 88 254 1.0 6.0 0.00 0.00 0.00 42 1013.5
20260831144025 88 283 1.0 6.0 0.00 0.00 0.00 42 1013.4
20260831143504 88 275 1.0 3.0 0.00 0.00 0.00 42 1013.4
20260831143004 88 255 1.0 3.0 0.00 0.00 0.00 42 1013.5
20260831142504 88 279 0.0 6.0 0.00 0.00 0.00 42 1013.3
20260831142004 88 258 3.0 6.0 0.00 0.00 0.00 42 1013.3
20260831141525 88 254 4.0 6.0 0.00 0.00 0.00 42 1013.6
20260831141004 88 267 1.0 5.0 0.00 0.00 0.00 42 1013.3
20260831140504 87 346 1.0 4.0 0.00 0.00 0.00 42 1013.5
20260831140004 87 263 2.0 4.0 0.00 0.00 0.00 42 1013.5
20260831135504 87 251 1.0 4.0 0.00 0.00 0.00 42 1013.5
20260831135004 87 224 0.0 1.0 0.00 0.00 0.00 42 1013.5
20260831134503 87 212 3.0 8.0 0.00 0.00 0.00 43 1013.5
20260831134004 87 226 5.0 9.0 0.00 0.00 0.00 42 1013.5
20260831133503 87 249 6.0 9.0 0.00 0.00 0.00 42 1013.6
20260831133004 87 264 4.0 9.0 0.00 0.00 0.00 43 1013.5
20260831132504 87 291 2.0 8.0 0.00 0.00 0.00 43 1013.6
20260831132004 87 261 4.0 8.0 0.00 0.00 0.00 42 1013.6
20260831131504 87 270 4.0 8.0 0.00 0.00 0.00 42 1013.7
20260831131004 87 317 3.0 4.0 0.00 0.00 0.00 42 1013.7
20260831130504 87 295 4.0 7.0 0.00 0.00 0.00 42 1013.7
20260831130004 87 269 2.0 7.0 0.00 0.00 0.00 42 1013.9
20260831125504 86 229 1.0 8.0 0.00 0.00 0.00 43 1013.8
20260831125004 86 241 2.0 8.0 0.00 0.00 0.00 43 1013.9
20260831124504 86 232 2.0 7.0 0.00 0.00 0.00 42 1013.9
20260831124004 86 221 1.0 4.0 0.00 0.00 0.00 42 1014.1
20260831123503 86 288 2.0 6.0 0.00 0.00 0.00 42 1014.1
20260831123004 86 289 3.0 6.0 0.00 0.00 0.00 43 1014.0
20260831122504 86 252 4.0 8.0 0.00 0.00 0.00 42 1014.0
20260831122025 85 228 3.0 8.0 0.00 0.00 0.00 43 1014.2
20260831121503 85 205 3.0 8.0 0.00 0.00 0.00 43 1014.1
20260831121004 85 208 3.0 8.0 0.00 0.00 0.00 43 1014.2
20260831120504 85 213 4.0 5.0 0.00 0.00 0.00 43 1014.2
20260831120003 85 200 5.0 8.0 0.00 0.00 0.00 43 1014.3
20260831115504 85 186 4.0 8.0 0.00 0.00 0.00 43 1014.3
20260831115004 85 240 2.0 6.0 0.00 0.00 0.00 44 1014.3
20260831114504 85 217 3.0 6.0 0.00 0.00 0.00 44 1014.3
20260831114004 85 203 4.0 8.0 0.00 0.00 0.00 45 1014.3
20260831113503 85 210 3.0 8.0 0.00 0.00 0.00 45 1014.3
20260831113004 85 280 1.0 4.0 0.00 0.00 0.00 45 1014.4
20260831112525 85 278 1.0 4.0 0.00 0.00 0.00 45 1014.3
20260831112004 85 221 0.0 1.0 0.00 0.00 0.00 46 1014.4
20260831111503 85 292 1.0 4.0 0.00 0.00 0.00 45 1014.6
20260831111003 85 256 2.0 4.0 0.00 0.00 0.00 45 1014.6
20260831110524 84 247 3.0 4.0 0.00 0.00 0.00 45 1014.5
20260831110004 84 251 2.0 4.0 0.00 0.00 0.00 45 1014.5
20260831105503 84 252 1.0 4.0 0.00 0.00 0.00 45 1014.7
20260831105004 84 294 1.0 4.0 0.00 0.00 0.00 45 1014.6
20260831104504 84 309 3.0 5.0 0.00 0.00 0.00 44 1014.4
20260831104003 84 315 2.0 5.0 0.00 0.00 0.00 45 1014.6
20260831103503 84 312 1.0 3.0 0.00 0.00 0.00 45 1014.6
20260831103004 84 303 0.0 1.0 0.00 0.00 0.00 46 1014.6
20260831102525 84 315 0.0 1.0 0.00 0.00 0.00 45 1014.8
20260831102004 84 337 0.0 1.0 0.00 0.00 0.00 47 1014.6
20260831101503 84 360 0.0 1.0 0.00 0.00 0.00 47 1014.7
20260831101004 84 0 0.0 0.0 0.00 0.00 0.00 47 1014.7
20260831100504 83 269 0.0 1.0 0.00 0.00 0.00 47 1014.7
20260831100004 83 302 0.0 1.0 0.00 0.00 0.00 47 1014.8
20260831095503 83 22 0.0 1.0 0.00 0.00 0.00 48 1014.8
20260831095004 83 315 0.0 1.0 0.00 0.00 0.00 48 1014.7
20260831094504 83 289 0.0 1.0 0.00 0.00 0.00 49 1014.8
20260831094004 83 247 0.0 1.0 0.00 0.00 0.00 50 1014.8
20260831093504 83 315 0.0 1.0 0.00 0.00 0.00 50 1014.8
20260831093025 82 315 0.0 1.0 0.00 0.00 0.00 51 1014.8
20260831092504 83 315 0.0 1.0 0.00 0.00 0.00 51 1014.8
20260831092004 83 0 0.0 0.0 0.00 0.00 0.00 52 1014.9
20260831091503 82 0 0.0 0.0 0.00 0.00 0.00 52 1015.1
20260831091004 82 0 0.0 0.0 0.00 0.00 0.00 52 1015.0
20260831090504 82 0 0.0 0.0 0.00 0.00 0.00 53 1015.0
20260831090025 82 0 0.0 0.0 0.00 0.00 0.00 53 1015.0
20260831085504 82 0 0.0 0.0 0.00 0.00 0.00 53 1014.9
20260831085004 81 0 0.0 0.0 0.00 0.00 0.00 58 1014.9
20260831084503 81 0 0.0 0.0 0.00 0.00 0.00 57 1014.9
20260831084025 81 0 0.0 0.0 0.00 0.00 0.00 57 1014.8
20260831083503 81 0 0.0 0.0 0.00 0.00 0.00 58 1014.9
20260831083003 80 0 0.0 0.0 0.00 0.00 0.00 59 1014.9
20260831082503 80 0 0.0 0.0 0.00 0.00 0.00 59 1014.8
20260831082004 80 0 0.0 0.0 0.00 0.00 0.00 60 1014.7
20260831081503 79 0 0.0 0.0 0.00 0.00 0.00 60 1014.8
20260831081003 79 0 0.0 0.0 0.00 0.00 0.00 60 1014.6
20260831080525 78 0 0.0 0.0 0.00 0.00 0.00 60 1014.6
20260831080004 78 0 0.0 0.0 0.00 0.00 0.00 60 1014.7
20260831075524 78 22 0.0 1.0 0.00 0.00 0.00 60 1014.6
20260831075003 78 17 0.0 1.0 0.00 0.00 0.00 61 1014.6
20260831074504 78 5 0.0 1.0 0.00 0.00 0.00 61 1014.6
20260831074004 77 360 0.0 1.0 0.00 0.00 0.00 61 1014.6
20260831073503 77 360 0.0 1.0 0.00 0.00 0.00 62 1014.5
20260831073003 77 0 0.0 0.0 0.00 0.00 0.00 62 1014.4
20260831072504 77 0 0.0 0.0 0.00 0.00 0.00 63 1014.4
20260831072004 76 0 0.0 0.0 0.00 0.00 0.00 62 1014.5
20260831071503 76 0 0.0 0.0 0.00 0.00 0.00 62 1014.5
20260831071003 76 0 0.0 0.0 0.00 0.00 0.00 62 1014.6
20260831070503 76 0 0.0 0.0 0.00 0.00 0.00 63 1014.6
20260831070004 76 0 0.0 0.0 0.00 0.00 0.00 63 1014.5
20260831065525 76 0 0.0 0.0 0.00 0.00 0.00 63 1014.6
20260831065004 75 0 0.0 0.0 0.00 0.00 0.00 63 1014.5
20260831064504 75 0 0.0 0.0 0.00 0.00 0.00 64 1014.5